User: anonymous   Login
Location: Utrecht
(52.0917°N, 5.1178°E)
Time: 16:45:15
(UTC+02:00)
Language:

Tiangong 1 - Orbit

View from above orbital plane
View from above orbital plane
View from above satellite
View from above satellite

Ground track
Ground track

The orbit data is extracted from the following two-line orbital elements,

1 37820U 11053A   18091.67159643  .06702538  93469-5  14209-3 0  9996
2 37820  42.7393 196.1141 0005983 335.0657  25.0237 16.46560555373989
Epoch (UTC): 01 April 2018 16:07:05
Eccentricity: 0.0005983
inclination: 42.7393°
perigee height: 144 km
apogee height: 152 km
right ascension of ascending node: 196.1141°
argument of perigee: 335.0657°
revolutions per day: 16.46560555
mean anomaly at epoch: 25.0237°
orbit number at epoch: 37398

The dashed part of the orbit path shows where the satellite is in the earth's shadow,  

DLR